Theta_e
334 338 339 339 341 338 340 338 336 337 338 336 334 337 341 343 345 353 336 333 328 336 337 336 330 332 335 336 336 334 336 336 337 336 336 334 333 332 331 329 329 328 328 327 325 324 323 321 322
338 339 336 338 340 339 338 336 336 337 339 336 337 339 341 346 338 337 335 331 329 335 335 334 331 329 333 336 336 337 337 337 338 338 337 335 334 332 331 330 330 329 329 328 327 326 325 323 324
333 332 337 339 337 337 338 336 335 339 338 338 341 341 342 341 336 334 334 328 329 333 332 332 330 329 333 332 336 336 335 334 332 330 328 325 323 326 319 327 329 329 329 329 329 327 324 322 322
328 331 334 338 338 336 338 336 336 339 336 337 340 344 341 335 334 335 332 328 330 331 327 324 327 328 333 333 331 329 327 325 323 321 321 321 321 317 316 319 326 326 329 328 330 326 321 319 320
327 332 338 338 338 336 336 336 338 338 338 339 340 344 343 336 336 333 328 328 332 330 333 331 326 326 331 330 327 326 320 320 321 322 322 320 317 317 317 317 318 321 321 318 318 319 320 321 322
331 332 337 338 336 336 337 336 337 337 337 339 340 342 341 337 335 331 327 330 333 330 336 332 324 323 330 331 327 320 322 320 320 319 319 319 319 320 320 320 320 321 322 323 324 323 323 324 324
332 333 337 334 335 336 336 333 337 337 337 339 338 341 340 336 334 330 328 331 333 330 334 333 333 335 334 326 321 325 326 323 321 321 320 320 320 321 321 321 322 322 322 323 324 325 325 325 324
330 331 335 335 336 336 333 333 334 336 336 336 337 340 342 336 334 331 329 331 335 333 331 331 331 328 327 328 324 328 329 329 324 323 323 324 325 325 326 327 328 326 326 326 326 326 325 325 324
328 332 333 335 335 333 330 332 330 329 334 335 335 335 337 336 333 330 329 331 333 334 335 335 332 330 330 331 329 329 331 330 331 328 325 327 330 330 330 327 323 323 324 325 325 325 325 325 328
331 332 331 332 331 331 330 330 330 332 334 335 337 336 338 336 332 330 329 330 331 332 334 335 335 331 330 331 333 333 334 333 333 333 332 331 330 330 323 326 323 325 325 326 327 328 328 329 329
331 333 329 329 328 327 328 329 329 330 334 333 335 339 337 335 333 330 329 329 331 332 332 332 335 332 331 331 334 334 334 333 331 331 333 331 330 331 331 330 330 330 330 331 332 332 332 332 332
334 330 328 328 327 328 330 328 329 329 331 329 331 337 337 336 334 331 329 329 329 330 331 332 331 331 332 332 333 332 332 330 331 332 332 331 331 332 332 332 333 333 333 333 333 333 333 333 332
331 329 328 328 327 328 328 329 328 329 329 328 333 337 337 336 335 332 331 330 328 328 328 330 331 331 331 331 329 329 328 329 331 332 332 332 333 334 334 334 334 334 334 333 333 333 332 331 331
329 329 328 328 329 328 329 329 327 329 330 332 336 337 337 336 335 334 333 333 330 328 327 328 329 328 327 327 327 328 331 332 333 334 334 334 334 335 335 335 334 334 334 333 332 332 332 331 331
329 331 330 329 329 330 328 330 329 331 332 335 336 337 336 336 336 335 335 334 330 328 327 326 327 327 327 328 331 333 334 334 335 335 335 335 335 334 335 334 334 334 332 331 331 331 329 327 327
331 331 335 330 330 328 328 333 329 330 334 335 336 336 335 335 335 335 336 334 332 331 330 328 328 330 332 333 334 335 335 335 335 335 335 334 334 333 334 332 332 330 330 328 325 325 324 323 321
331 334 332 331 329 328 329 331 329 330 334 336 337 335 335 334 334 337 336 335 334 333 331 331 332 334 335 335 336 336 335 335 333 331 329 327 327 328 329 326 324 324 324 322 320 320 319 318 318
332 332 331 332 329 329 330 331 329 331 334 335 337 337 335 336 337 337 336 335 335 333 333 333 334 335 336 336 336 335 334 328 326 324 322 322 321 321 322 321 319 319 318 317 315 316 316 316 315
330 331 331 330 328 329 330 330 330 331 333 335 336 337 337 337 336 336 336 336 336 336 336 336 336 336 336 336 336 334 330 324 321 319 319 318 318 318 318 317 315 315 313 312 311 312 313 313 313
329 332 332 330 327 327 330 330 329 329 331 334 335 336 335 335 337 336 336 336 336 335 335 336 335 334 335 336 335 334 327 322 318 314 312 311 312 312 310 310 309 308 309 308 307 308 308 309 310
327 326 331 331 329 327 328 331 330 328 328 329 333 335 334 335 335 336 334 332 331 329 328 327 325 326 329 330 329 324 319 317 315 310 306 305 304 304 304 304 304 304 304 304 303 303 305 306 306
326 324 324 330 331 335 328 333 329 328 328 327 331 334 335 335 333 331 329 327 326 321 318 318 318 319 321 324 324 322 320 316 311 307 304 302 302 301 301 300 300 300 300 300 300 300 301 302 302
325 323 325 327 331 331 332 335 330 329 329 328 329 334 335 335 332 330 326 322 317 314 314 313 313 313 315 318 320 318 313 309 307 304 302 300 298 298 297 297 297 297 297 297 298 298 298 298 299
326 328 326 328 329 331 332 333 334 331 330 328 327 332 335 334 328 323 318 315 312 311 311 309 309 308 309 310 311 309 307 305 304 303 301 299 298 297 296 296 296 295 295 295 296 296 296 296 296
326 328 329 329 328 335 328 333 333 329 326 327 326 331 332 327 322 318 315 312 310 308 307 307 305 304 304 304 304 304 303 302 300 299 299 298 297 296 295 294 294 293 293 293 294 293 293 293 293
328 327 330 336 336 331 326 333 330 324 322 319 322 323 323 321 318 316 313 310 307 306 304 302 301 300 300 299 300 300 300 298 297 297 296 296 295 293 293 292 291 291 290 291 292 290 290 290 291
328 328 320 323 320 330 329 327 324 322 321 317 318 319 319 317 315 312 309 307 304 302 300 300 300 298 298 298 297 297 296 298 297 296 295 294 292 291 290 290 290 289 289 289 289 288 288 288 288
323 320 325 325 333 337 330 328 329 324 323 318 317 318 317 314 310 308 305 304 301 299 299 298 298 297 296 295 296 295 296 296 295 294 293 292 291 289 288 288 288 288 287 288 288 287 286 287 287
322 323 324 324 324 330 329 326 315 320 323 319 317 316 314 312 309 307 304 302 301 300 301 301 301 300 301 302 302 301 297 294 293 292 291 289 288 287 287 286 286 287 287 287 287 286 285 286 285
318 323 323 332 328 322 324 325 310 313 321 318 316 314 312 310 308 307 304 303 302 304 305 304 305 307 304 301 296 293 292 292 291 289 288 287 287 286 286 285 285 286 286 285 285 285 284 284 284
Wind_Speed
2 3 3 6 6 6 8 7 2 5 6 3 7 1 9 12 7 5 16 11 20 19 18 15 14 14 14 13 15 15 16 15 15 13 12 10 11 11 11 11 11 10 10 9 8 8 8 8 8
5 3 7 5 7 10 9 5 7 5 8 8 6 4 1 6 7 11 13 15 21 19 17 15 15 16 14 13 15 16 15 15 15 14 12 10 9 9 9 8 9 8 8 7 6 6 7 7 8
4 6 8 5 11 9 4 7 6 7 8 7 4 4 3 4 11 14 14 22 20 18 16 15 17 17 15 14 13 13 13 11 10 9 7 6 6 6 6 9 7 6 5 5 4 5 6 7 7
5 5 5 8 13 6 6 6 7 11 5 3 1 8 7 4 10 9 21 22 20 17 15 16 18 18 15 13 11 10 9 8 6 5 5 5 6 5 5 5 4 6 6 3 3 4 5 6 7
10 3 8 12 14 6 3 4 8 10 10 9 6 6 8 7 8 20 22 20 19 18 16 16 18 19 16 12 9 8 6 5 5 4 5 5 5 6 7 7 6 4 2 3 3 4 5 6 7
7 3 7 13 15 9 4 3 8 7 7 8 5 10 8 7 15 20 21 20 18 18 16 16 18 18 15 12 9 7 6 5 5 5 5 5 5 5 5 4 4 3 3 3 4 5 7 8 9
11 5 14 16 8 11 4 3 9 8 7 7 5 9 6 10 17 20 20 19 18 18 17 16 14 14 13 10 9 8 7 6 6 5 5 5 4 3 3 2 2 2 2 4 5 7 8 9 10
5 3 17 10 13 5 3 5 3 9 7 5 0 6 7 16 21 21 19 19 16 18 16 16 14 12 10 10 10 8 6 5 5 4 3 3 3 3 3 3 4 4 5 5 7 8 9 10 10
5 6 11 16 11 7 5 5 5 3 6 4 3 4 7 27 24 22 20 16 15 14 17 16 15 12 11 9 9 8 6 4 3 2 1 2 1 1 2 5 5 5 6 6 7 9 9 11 9
9 11 17 3 1 5 3 4 9 7 9 6 7 7 22 27 25 23 22 18 17 17 14 15 13 12 11 10 7 7 5 3 2 3 1 1 2 3 4 5 6 6 7 7 9 10 10 9 8
16 15 5 5 3 1 2 3 4 9 10 9 13 14 19 24 23 21 19 19 18 16 14 15 13 12 11 9 8 6 6 5 7 5 3 2 2 2 4 4 5 5 9 5 8 8 8 9 9
18 18 7 6 2 2 1 4 4 9 6 5 5 19 20 21 20 21 19 19 18 17 16 14 14 13 11 9 8 6 5 4 3 2 2 2 2 3 3 3 5 5 5 6 7 9 10 11 12
23 15 12 7 4 5 5 5 5 6 5 2 11 18 19 18 20 19 17 16 17 16 15 15 14 13 11 9 7 6 5 4 3 2 2 1 2 3 4 5 5 6 7 8 9 11 12 13 14
14 11 11 7 7 5 6 7 3 2 4 8 14 15 16 18 20 18 17 17 17 16 16 15 14 12 10 9 7 6 5 3 2 2 1 2 3 4 5 6 7 8 8 9 10 11 13 12 13
3 14 14 14 10 7 5 9 7 5 6 10 12 13 15 15 19 17 15 16 17 16 16 15 13 12 10 9 8 6 4 4 2 1 1 3 4 5 6 7 8 8 9 9 10 10 11 13 13
5 5 14 16 15 7 7 12 11 7 8 10 11 11 13 14 18 17 18 16 16 16 16 15 13 13 11 9 8 6 5 3 1 0 1 3 4 4 5 5 6 8 8 8 8 10 10 12 12
10 8 20 15 16 9 13 10 14 6 9 9 10 11 12 13 16 19 19 16 16 15 15 16 14 13 11 9 7 5 4 3 2 3 4 5 6 6 5 5 6 7 7 8 10 10 10 11 12
8 17 15 21 14 14 14 11 5 7 8 6 11 13 13 14 16 21 19 17 15 14 14 15 14 13 12 10 9 8 8 6 5 6 6 7 7 8 6 7 8 8 7 8 11 11 11 10 13
8 13 16 22 10 16 16 15 11 7 7 8 11 13 14 16 20 20 18 16 15 13 13 13 13 13 12 10 11 10 7 6 7 8 8 8 8 9 8 7 8 8 9 10 11 11 11 11 15
3 15 10 7 2 9 16 15 14 10 10 14 12 13 15 16 17 18 18 16 14 12 12 11 11 11 11 10 9 9 11 8 9 9 10 10 9 10 10 8 9 10 8 11 12 13 12 8 13
4 2 13 4 4 11 5 15 15 15 11 9 12 13 14 17 16 15 16 15 13 11 10 10 9 8 8 9 10 13 12 11 10 9 10 12 11 12 12 11 10 10 10 11 12 13 13 10 11
6 8 6 11 7 6 8 9 18 18 16 13 12 12 14 16 15 14 15 14 13 11 9 9 9 9 9 9 11 12 11 11 10 10 10 11 12 12 12 12 12 12 11 12 12 12 10 10 10
6 16 11 7 10 5 8 5 12 17 18 16 14 14 15 15 15 15 14 14 12 11 11 10 10 11 10 9 10 10 13 13 12 11 12 12 12 12 12 11 11 11 10 10 10 10 11 10 9
2 9 7 2 1 3 7 11 14 13 17 17 15 14 16 15 13 13 14 15 13 11 12 12 13 14 14 15 14 15 16 14 13 11 10 9 10 10 11 10 10 11 10 11 9 10 11 12 10
11 10 3 3 3 1 4 9 8 3 2 11 14 15 13 14 14 13 13 15 14 14 13 13 14 16 16 18 21 19 18 17 14 12 10 7 11 8 10 9 9 10 10 9 9 10 10 10 9
14 8 4 2 4 4 1 5 6 4 6 2 7 12 13 14 13 13 16 17 16 16 15 16 15 17 18 18 19 20 18 16 15 15 11 7 6 7 7 7 8 8 9 9 8 9 10 10 8
4 5 3 5 3 2 4 3 11 6 5 7 11 13 14 13 13 14 17 18 18 18 17 20 20 19 17 19 18 17 17 16 13 11 8 5 5 6 6 6 7 9 10 9 8 10 10 9 9
4 10 4 1 5 4 6 3 6 9 12 11 11 14 15 14 15 13 17 18 17 20 21 20 19 19 13 12 17 15 14 13 8 9 7 5 5 4 5 6 7 8 9 9 8 8 9 9 9
5 4 2 2 2 2 4 3 4 4 13 14 13 13 15 16 16 15 18 17 18 20 21 20 17 13 10 7 8 6 7 7 6 6 6 5 4 5 5 6 7 7 8 8 8 8 10 10 10
4 5 7 3 4 1 3 2 3 2 10 13 14 14 15 16 16 14 17 17 21 20 17 16 13 9 8 9 10 10 8 6 4 4 5 4 4 4 5 5 6 6 6 7 9 10 10 11 12
Wind_Direction
69 155 258 255 235 227 249 179 35 155 154 64 86 319 61 35 5 66 136 134 146 144 148 149 150 148 139 122 133 137 137 134 128 119 106 98 96 88 86 87 84 83 84 81 78 74 69 62 52
236 257 250 274 251 198 221 131 197 143 86 126 113 127 146 79 61 136 127 144 147 144 148 154 156 153 144 129 120 119 119 120 117 116 115 108 100 90 90 88 83 87 83 79 74 67 56 47 35
266 266 261 234 235 226 234 162 130 119 135 157 124 14 31 70 120 136 134 146 146 146 150 162 158 155 146 141 136 131 127 125 120 116 113 107 101 99 99 109 110 81 89 77 68 57 37 27 21
284 214 243 243 218 171 229 114 140 148 157 190 119 101 95 54 129 136 142 146 146 145 145 152 157 158 145 144 143 135 131 128 126 123 113 106 103 97 94 117 126 107 108 48 35 23 18 15 9
246 238 249 230 251 174 190 83 160 175 160 162 195 120 100 102 113 137 144 148 146 145 146 146 154 160 156 158 150 140 130 125 121 117 117 113 110 104 100 98 95 94 72 43 26 7 3 360 356
263 256 236 224 227 171 171 153 180 175 154 131 174 132 115 125 144 147 149 150 147 146 145 148 152 153 156 157 151 141 124 117 118 117 108 106 108 107 101 93 86 76 47 19 1 351 346 346 345
264 245 241 228 250 166 143 224 193 173 170 172 116 152 107 145 156 153 153 151 146 149 148 149 152 156 160 162 155 141 125 115 118 115 109 105 106 104 92 73 44 13 355 348 341 339 339 338 338
267 250 247 234 210 167 129 167 212 185 153 95 314 176 164 165 164 156 154 154 151 154 157 158 159 159 161 161 161 154 138 120 120 128 127 109 68 28 25 20 343 337 334 332 332 331 330 330 328
254 234 234 219 223 136 140 202 180 68 134 169 124 18 112 152 160 158 152 155 165 166 161 162 163 163 165 164 173 169 170 164 131 106 78 92 82 299 317 292 311 328 332 331 332 331 331 333 345
223 223 230 38 93 113 135 259 155 185 166 167 143 119 129 154 163 166 165 167 172 172 171 169 165 169 169 170 175 177 186 184 184 190 225 235 258 269 304 315 335 340 339 337 340 339 340 347 324
221 238 202 180 124 42 70 158 256 220 189 180 181 150 156 163 169 173 171 172 178 177 175 179 175 179 178 179 179 188 199 199 206 214 220 265 290 307 321 318 326 323 322 335 325 323 323 315 317
243 218 190 156 147 355 57 335 230 232 83 31 157 157 167 171 173 177 176 172 177 180 183 185 180 182 183 184 187 192 194 208 200 210 230 274 316 316 313 314 315 318 317 318 321 319 315 317 316
217 187 213 210 257 286 302 262 278 259 204 146 131 153 175 174 175 177 177 169 174 181 182 184 183 183 186 190 188 190 189 180 191 181 221 237 290 301 310 311 314 311 312 316 313 311 311 310 314
193 193 198 202 235 262 270 275 270 112 137 151 150 162 178 176 176 173 177 173 177 177 178 179 183 183 183 186 184 179 174 170 178 189 213 288 303 313 315 315 312 311 313 318 317 316 312 319 318
243 203 232 229 230 265 248 243 220 105 173 158 163 163 178 178 178 177 181 178 177 176 173 176 177 180 181 183 179 175 173 168 190 240 316 323 319 312 310 310 315 318 323 322 328 323 326 322 322
162 181 211 226 222 232 210 226 180 152 182 171 166 164 179 179 181 187 184 177 176 174 173 173 175 178 178 177 176 177 180 180 179 6 338 5 348 330 321 332 335 336 342 344 339 335 333 327 327
195 188 216 207 183 188 195 227 136 185 181 172 170 174 178 184 185 191 178 176 175 177 176 174 175 175 177 179 179 178 158 145 94 68 54 40 33 28 31 27 14 6 3 1 353 348 348 343 342
195 193 203 212 184 209 195 235 144 177 153 212 180 173 181 186 194 183 172 175 173 177 177 174 176 178 179 179 175 162 155 118 102 82 64 59 44 43 46 39 29 28 23 18 11 2 359 354 345
179 179 196 213 165 190 205 211 221 158 148 224 205 179 182 183 183 169 174 173 172 179 177 175 173 178 177 176 174 168 149 119 95 84 71 58 55 47 52 45 39 38 34 28 25 10 1 359 355
45 186 200 216 32 232 206 214 224 188 194 195 212 186 180 175 171 166 177 174 176 174 176 178 173 178 184 184 183 164 145 127 111 94 76 63 59 64 54 55 48 44 37 30 29 27 11 4 10
230 346 208 181 141 273 211 227 228 229 217 198 210 187 182 176 176 176 168 168 160 159 155 157 155 158 167 163 148 135 128 119 109 86 74 62 59 57 58 50 49 48 49 32 26 24 20 359 6
197 197 265 216 185 203 204 229 207 213 209 208 197 197 184 171 176 169 168 158 148 133 130 133 133 134 137 147 153 151 145 127 109 103 93 80 75 66 61 54 49 46 39 31 25 16 16 12 6
223 177 175 241 189 163 199 252 242 191 208 202 199 191 185 176 173 161 162 144 134 130 124 121 116 108 115 128 139 131 115 117 113 105 96 80 67 66 60 50 42 37 30 28 23 19 19 19 10
147 136 77 131 140 216 181 197 219 195 214 204 195 181 180 162 155 149 138 134 125 118 112 110 108 98 99 104 108 115 119 118 114 107 98 91 82 54 47 35 28 26 24 22 23 31 26 23 18
197 146 117 194 179 212 197 196 262 31 168 223 177 172 154 153 150 147 142 133 124 112 105 101 100 94 95 105 112 112 107 103 94 85 78 67 69 46 31 30 27 29 32 32 33 37 36 28 27
189 189 164 205 173 125 41 215 223 324 60 333 223 163 150 154 151 151 137 127 120 110 103 100 93 94 100 100 107 111 111 108 108 98 85 69 59 54 37 35 38 39 43 46 41 39 39 31 26
164 200 42 107 12 140 188 259 275 202 181 141 143 150 155 145 140 132 130 126 117 109 102 107 105 97 98 106 107 107 112 103 98 96 95 77 59 49 38 45 47 45 44 48 41 39 38 31 28
220 143 96 65 179 213 160 236 242 196 190 167 162 162 149 139 130 130 124 121 114 113 110 109 105 104 103 106 107 101 89 99 108 119 115 93 69 65 60 55 59 51 45 46 45 40 33 32 25
141 161 190 182 262 283 152 195 37 236 184 175 165 155 150 148 143 138 131 124 120 120 118 115 106 96 99 71 75 90 129 138 128 110 87 83 84 76 75 67 61 55 49 46 42 36 28 25 19
289 175 176 193 192 58 341 111 51 308 153 163 152 152 152 147 139 136 138 139 137 135 133 133 129 142 176 176 159 158 152 133 107 89 103 100 99 97 84 75 72 63 52 42 37 29 23 19 17